Regional Weather Roundup
Issued by NWS

Home | Current Version | Previous Version | Graphics & Text | Print | Product List | Glossary On
Versions: 1 2 3 4 5 6 7 8 9 10 11 12 13 14 15 16 17 18 19 20 21 22 23 24 25 26 27 28 29 30 31 32 33 34 35 36 37 38 39 40 41 42 43 44 45 46 47 48 49 50
000
ASUS44 KMEG 252000
RWRTN
TENNESSEE HOURLY STATE WEATHER ROUNDUP
NATIONAL WEATHER SERVICE MEMPHIS TN
200 PM CST SUN JAN 25 2015

TNZ002-004-019-021-049-052-054-088>092-252100-
WEST TENNESSEE

CITY           SKY/WX    TMP DP  RH WIND       PRES   REMARKS
MEMPHIS INTL   MOSUNNY   57  42  57 W10       29.68F
NWS MEMPHIS      N/A     54 N/A N/A MISG        N/A
JACKSON        PTSUNNY   50  43  77 SW14      29.65F
DYERSBURG      CLOUDY    48  34  57 SW16      29.67R
UNION CITY     CLOUDY    41  41 100 W6        29.63S
PARIS          CLOUDY    41  39  93 SW9       29.62F
LEXINGTON      CLOUDY    46  41  81 W13       29.64S
SAVANNAH       PTSUNNY   52  39  62 SW10      29.66F
$$

TNZ008-025-027-028-033-062-065-066-252100-
NORTH MIDDLE TENNESSEE

CITY           SKY/WX    TMP DP  RH WIND       PRES   REMARKS
NASHVILLE      CLOUDY    55  37  50 SW9G21    29.63F
CLARKSVILLE    CLOUDY    49  39  68 S14       29.60F
COOKEVILLE     MOSUNNY   52  36  54 S9        29.64F
CROSSVILLE     CLOUDY    50  31  48 S10G21    29.67F
$$

TNZ061-075-076-078-094-096-097-252100-
SOUTH MIDDLE TENNESSEE

CITY           SKY/WX    TMP DP  RH WIND       PRES   REMARKS
FAYETTEVILLE   MOSUNNY   52  34  50 MISG      29.68S
TULLAHOMA      SUNNY     52  34  50 S12       29.67F
WINCHESTER     MOSUNNY   54  34  47 SW8       29.69S
SHELBYVILLE    PTSUNNY   54  39  58 SW14      29.67F
$$

TNZ017-018-042-046-047-252100-
NORTHEAST TENNESSEE

CITY           SKY/WX    TMP DP  RH WIND       PRES   REMARKS
TRI CITIES     PTSUNNY   53  30  41 SW6       29.73F
ELIZABETHTON   CLEAR     54  28  37 CALM      29.71F
$$

TNZ012-013-036-069-073-074-252100-
CENTRAL EAST TENNESSEE

CITY           SKY/WX    TMP DP  RH WIND       PRES   REMARKS
KNOXVILLE      PTSUNNY   54  34  46 SW15G23   29.70F
OAK RIDGE      MOSUNNY   54  32  43 S8        29.71F
GATLINBURG     CLEAR     55  28  35 S5        29.70F
$$

TNZ083-085-099-252100-
SOUTHEAST TENNESSEE

CITY           SKY/WX    TMP DP  RH WIND       PRES   REMARKS
CHATTANOOGA    MOSUNNY   57  32  38 S15G25    29.71F
$$

SKY/WX REPORTED AS FAIR MEANS FEW OR NO CLOUDS BELOW
12 THOUSAND FEET.




USA.gov is the U.S. government's official web portal to all federal, state and local government web resources and services.